SCOUT A DEB, 2777

Orbit data source: Space-Track

SCOUT A DEB, 2777 is space debris in LEO originally from a launch on Fri, 14 Apr 1967 UTC launched from the Air Force Western Test Range (AFWTR). Debris objects in space refer to the collection of defunct objects orbiting the Earth. Examples of debris include non-operational satellites, rocket bodies, and fragments generated from explosions, collisions, or faulty payload assembly.

Loading next visibility...
Identifier
2777, 1967-034C
Orbit
LEO
Last TLE update
2 days ago
Origin
Manufacturer
Unknown
Mission
Spacecraft
Bus & Motor
Unknown
Mass
Unknown
Launch date (UTC)
1967-04-14 (58 years ago)
Launch vehicle
Unknown
Launch site
Air Force Western Test Range (AFWTR)
Object type
Payload
Rocket body
Debris
Shape & HBR
Unknown
Radar Cross Section
Small (<0.1 m²)

Expand to show TLE details & history

TLE from 2 days ago
0 SCOUT A DEB
1 02777U 67034C   25167.94033863  .00000473  00000-0  26618-3 0  9990
2 02777  90.2698 234.0364 0128113 187.9889 171.9256 14.05220917958168
Epoch: 2025-06-16T22:34Z
TLE epoch observation values (Epoch: 2025-06-16T22:34:05.257Z)
Latitude
-0.00001°
Longitude
-9.92938°
Altitude
970.859 km
Speed
7.319 km/s
True Right ascension
15h 36m 08s
True Declination
0° 00' 00"
Sunlit
Object was in full shadow at epoch
Visualization orbit readout
Latitude
7.29928°
Longitude
-9.89778°
Altitude
970.506 km
Speed
7.32 km/s
Apparent Right ascension
17h 35m 10s
Apparent Declination
-46° 06' 17"
Sunlit
Object is in full shadow
Visualization observer readout
Local Sidereal Time
14:24:59
Azimuth
149.048° SSE
Elevation
-5.937°
Doppler factor
1
Orbital elements
Apogee altitude
965.634 km
Perigee altitude
779.848 km
Semi-major axis
7,250.878 km
Eccentricity
0.01281
Inclination
90.2698°
RAAN
234.0364°
Arg. of periapsis
187.9889°
True anomaly
Unknown
Mean anomaly
171.9256°
Eccentric anomaly
Unknown
Mean motion
3.51526 °/min
Orbital period
102.41 mins
BSTAR
0.00026618
Loading maneuver chart data...
Loading SW <> Apogee altitude chart data...
Loading historical data...
Loading historical data...
Loading historical data...
Loading historical data...
Loading historical data...
Loading historical data...
Loading historical data...

SCOUT A DEB Visibility forecast

Observer location: undefined°, undefined°

Span
Click to sort rows by Start time (UTC) header in descending order
Start Az.
Max El. time (UTC)
Max El. Az.
Max El.
End time (UTC)
End Az.
9 mins2025-06-19 03:39:58.560Z133.142° SE2025-06-19 03:44:58.560Z76.336° E25.534°2025-06-19 03:48:58.560Z26.081° NE
9 mins2025-06-19 05:22:58.560Z212.205° SW2025-06-19 05:26:58.560Z272.653° WNW33.08°2025-06-19 05:31:58.560Z339.692° N
8 mins2025-06-19 16:06:58.560Z22.748° NE2025-06-19 16:10:58.560Z93.762° ESE33.905°2025-06-19 16:14:58.560Z155.215° SSE
6 mins2025-06-19 17:49:58.560Z322.262° NNW2025-06-19 17:52:58.560Z280.69° WNW19.844°2025-06-19 17:55:58.560Z242.062° WSW
|